• In Deutschland
  • Länderverzeichnis
  • Für 7 Tage
  • Wassertemperatur
  • Satellitenkarten
  • Wetterkarte
  • Widgets
  • user-avatar
    Anmelden

    Stündliche Wetter Jaú

    Heute, 26 September, Dienstag

    Zeit Temperatur Niederschläge Wind Luftdruck Luftfeuchtigkeit
    00:00 +32°C° 0 mm 1 m/S 754 mmHg 51%
    01:00 +32°C° 0 mm 1 m/S 754 mmHg 50%
    02:00 +31°C° 0 mm 1 m/S 754 mmHg 50%
    03:00 +31°C° 0 mm 1 m/S 754 mmHg 49%
    04:00 +31°C° 0 mm 2 m/S 754 mmHg 48%
    05:00 +31°C° 0 mm 2 m/S 754 mmHg 47%
    06:00 +32°C° 0 mm 2 m/S 754 mmHg 45%
    07:00 +34°C° 0 mm 3 m/S 755 mmHg 40%
    08:00 +36°C° 0 mm 3 m/S 755 mmHg 34%
    09:00 +38°C° 0 mm 3 m/S 755 mmHg 28%
    10:00 +39°C° 0 mm 3 m/S 755 mmHg 25%
    11:00 +40°C° 0 mm 3 m/S 755 mmHg 22%
    12:00 +42°C° 0 mm 3 m/S 755 mmHg 19%
    13:00 +42°C° 0 mm 3 m/S 754 mmHg 19%
    14:00 +43°C° 0 mm 3 m/S 754 mmHg 18%
    15:00 +43°C° 0 mm 3 m/S 754 mmHg 18%
    16:00 +40°C° 0 mm 3 m/S 754 mmHg 22%
    17:00 +39°C° 0 mm 3 m/S 754 mmHg 26%
    18:00 +38°C° 0 mm 2 m/S 754 mmHg 30%
    19:00 +37°C° 0 mm 2 m/S 754 mmHg 33%
    20:00 +36°C° 0 mm 2 m/S 754 mmHg 37%
    21:00 +35°C° 0 mm 2 m/S 755 mmHg 40%
    22:00 +35°C° 0 mm 2 m/S 755 mmHg 42%
    23:00 +34°C° 0 mm 2 m/S 755 mmHg 45%

    Morgen, 27 September, Mittwoch

    Zeit Temperatur Niederschläge Wind Luftdruck Luftfeuchtigkeit
    00:00 +34°C° 0 mm 2 m/S 755 mmHg 47%
    01:00 +32°C° 0 mm 2 m/S 755 mmHg 48%
    02:00 +32°C° 0 mm 2 m/S 754 mmHg 49%
    03:00 +31°C° 0 mm 1 m/S 754 mmHg 50%
    04:00 +31°C° 0 mm 1 m/S 755 mmHg 49%
    05:00 +31°C° 0 mm 1 m/S 755 mmHg 47%
    06:00 +31°C° 0 mm 1 m/S 755 mmHg 45%
    07:00 +33°C° 0 mm 1 m/S 756 mmHg 40%
    08:00 +35°C° 0 mm 1 m/S 756 mmHg 36%
    09:00 +37°C° 0 mm 1 m/S 757 mmHg 31%
    10:00 +39°C° 0 mm 1 m/S 756 mmHg 29%
    11:00 +39°C° 0 mm 1 m/S 756 mmHg 26%
    12:00 +40°C° 0 mm 2 m/S 756 mmHg 24%
    13:00 +40°C° 0 mm 2 m/S 755 mmHg 24%
    14:00 +41°C° 0 mm 2 m/S 755 mmHg 23%
    15:00 +42°C° 0 mm 3 m/S 755 mmHg 23%
    16:00 +40°C° 0 mm 3 m/S 754 mmHg 27%
    17:00 +38°C° 0 mm 3 m/S 754 mmHg 30%
    18:00 +37°C° 0 mm 2 m/S 754 mmHg 34%
    19:00 +37°C° 0 mm 2 m/S 755 mmHg 37%
    20:00 +36°C° 0 mm 2 m/S 755 mmHg 40%
    21:00 +35°C° 0 mm 2 m/S 756 mmHg 44%
    22:00 +35°C° 0 mm 2 m/S 755 mmHg 46%
    23:00 +34°C° 0 mm 2 m/S 755 mmHg 48%

    übermorgen, 28 September, Donnerstag

    Zeit Temperatur Niederschläge Wind Luftdruck Luftfeuchtigkeit
    00:00 +34°C° 0 mm 2 m/S 755 mmHg 51%
    01:00 +32°C° 0 mm 2 m/S 755 mmHg 51%
    02:00 +32°C° 0 mm 1 m/S 754 mmHg 51%
    03:00 +32°C° 0 mm 1 m/S 754 mmHg 51%
    04:00 +32°C° 0 mm 1 m/S 755 mmHg 50%
    05:00 +32°C° 0 mm 2 m/S 755 mmHg 49%
    06:00 +31°C° 0 mm 2 m/S 755 mmHg 48%
    07:00 +34°C° 0 mm 2 m/S 756 mmHg 42%
    08:00 +36°C° 0 mm 2 m/S 756 mmHg 37%
    09:00 +38°C° 0 mm 3 m/S 756 mmHg 31%
    10:00 +39°C° 0 mm 2 m/S 756 mmHg 28%
    11:00 +40°C° 0 mm 2 m/S 756 mmHg 24%
    12:00 +41°C° 0 mm 2 m/S 755 mmHg 21%
    13:00 +41°C° 0 mm 2 m/S 755 mmHg 19%
    14:00 +42°C° 0 mm 2 m/S 754 mmHg 17%
    15:00 +42°C° 0 mm 2 m/S 754 mmHg 16%
    16:00 +41°C° 0 mm 2 m/S 754 mmHg 19%
    17:00 +39°C° 0 mm 2 m/S 754 mmHg 22%
    18:00 +38°C° 0 mm 2 m/S 754 mmHg 25%
    19:00 +37°C° 0 mm 2 m/S 755 mmHg 28%
    20:00 +36°C° 0 mm 2 m/S 755 mmHg 30%
    21:00 +34°C° 0 mm 1 m/S 755 mmHg 32%
    22:00 +33°C° 0 mm 1 m/S 755 mmHg 33%
    23:00 +33°C° 0 mm 1 m/S 755 mmHg 34%

    29 September, Freitag

    Zeit Temperatur Niederschläge Wind Luftdruck Luftfeuchtigkeit
    00:00 +30°C° 0 mm 0 m/S 754 mmHg 35%
    01:00 +32°C° 0 mm 1 m/S 754 mmHg 34%
    02:00 +32°C° 0 mm 2 m/S 754 mmHg 34%
    03:00 +32°C° 0 mm 2 m/S 754 mmHg 33%
    04:00 +33°C° 0 mm 3 m/S 754 mmHg 33%
    05:00 +34°C° 0 mm 3 m/S 754 mmHg 33%
    06:00 +34°C° 0 mm 3 m/S 755 mmHg 33%
    07:00 +35°C° 0 mm 3 m/S 755 mmHg 28%
    08:00 +37°C° 0 mm 3 m/S 755 mmHg 24%
    09:00 +39°C° 0 mm 3 m/S 755 mmHg 19%
    10:00 +40°C° 0 mm 3 m/S 755 mmHg 18%
    11:00 +41°C° 0 mm 2 m/S 755 mmHg 17%
    12:00 +42°C° 0 mm 2 m/S 754 mmHg 15%
    13:00 +42°C° 0 mm 2 m/S 754 mmHg 15%
    14:00 +43°C° 0 mm 3 m/S 753 mmHg 15%
    15:00 +43°C° 0 mm 3 m/S 753 mmHg 15%
    16:00 +42°C° 0 mm 3 m/S 753 mmHg 20%
    17:00 +39°C° 0 mm 3 m/S 753 mmHg 24%
    18:00 +38°C° 0 mm 2 m/S 753 mmHg 28%
    19:00 +37°C° 0 mm 2 m/S 754 mmHg 31%
    20:00 +36°C° 0 mm 2 m/S 754 mmHg 34%
    21:00 +35°C° 0 mm 2 m/S 754 mmHg 37%
    22:00 +33°C° 0 mm 1 m/S 754 mmHg 40%
    23:00 +33°C° 0 mm 1 m/S 754 mmHg 43%

    30 September, Samstag

    Zeit Temperatur Niederschläge Wind Luftdruck Luftfeuchtigkeit
    00:00 +30°C° 0 mm 0 m/S 754 mmHg 46%
    01:00 +32°C° 0 mm 1 m/S 754 mmHg 46%
    02:00 +31°C° 0 mm 1 m/S 754 mmHg 46%
    03:00 +31°C° 0 mm 1 m/S 754 mmHg 45%
    04:00 +31°C° 0 mm 1 m/S 754 mmHg 45%
    05:00 +31°C° 0 mm 2 m/S 754 mmHg 45%
    06:00 +32°C° 0 mm 2 m/S 755 mmHg 45%
    07:00 +34°C° 0 mm 2 m/S 755 mmHg 40%
    08:00 +36°C° 0 mm 2 m/S 755 mmHg 34%
    09:00 +38°C° 0 mm 2 m/S 756 mmHg 29%
    10:00 +39°C° 0 mm 2 m/S 755 mmHg 27%
    11:00 +40°C° 0 mm 2 m/S 755 mmHg 24%
    12:00 +41°C° 0 mm 2 m/S 755 mmHg 22%
    13:00 +42°C° 0 mm 3 m/S 754 mmHg 22%
    14:00 +42°C° 0 mm 3 m/S 754 mmHg 22%
    15:00 +42°C° 0 mm 4 m/S 754 mmHg 22%
    16:00 +41°C° 0 mm 4 m/S 754 mmHg 27%
    17:00 +40°C° 0 mm 4 m/S 754 mmHg 32%
    18:00 +37°C° 0 mm 4 m/S 754 mmHg 37%
    19:00 +37°C° 0 mm 4 m/S 755 mmHg 38%
    20:00 +37°C° 0 mm 3 m/S 755 mmHg 39%
    21:00 +36°C° 0 mm 3 m/S 755 mmHg 40%
    22:00 +36°C° 0 mm 3 m/S 755 mmHg 41%
    23:00 +35°C° 0 mm 3 m/S 755 mmHg 42%

    1 Oktober, Sonntag

    Zeit Temperatur Niederschläge Wind Luftdruck Luftfeuchtigkeit
    00:00 +35°C° 0 mm 2 m/S 755 mmHg 43%
    01:00 +34°C° 0 mm 2 m/S 755 mmHg 44%
    02:00 +32°C° 0 mm 1 m/S 755 mmHg 44%
    03:00 +31°C° 0 mm 1 m/S 755 mmHg 45%
    04:00 +31°C° 0 mm 1 m/S 755 mmHg 46%
    05:00 +31°C° 0 mm 1 m/S 756 mmHg 46%
    06:00 +31°C° 0 mm 1 m/S 756 mmHg 46%
    07:00 +33°C° 0 mm 1 m/S 756 mmHg 42%
    08:00 +35°C° 0 mm 1 m/S 757 mmHg 38%
    09:00 +36°C° 0 mm 1 m/S 757 mmHg 34%
    10:00 +39°C° 0 mm 2 m/S 757 mmHg 31%
    11:00 +40°C° 0 mm 2 m/S 756 mmHg 28%
    12:00 +41°C° 0 mm 2 m/S 756 mmHg 25%
    13:00 +42°C° 0 mm 3 m/S 755 mmHg 23%
    14:00 +42°C° 0 mm 3 m/S 755 mmHg 22%
    15:00 +43°C° 0 mm 4 m/S 755 mmHg 20%
    16:00 +41°C° 0 mm 4 m/S 755 mmHg 25%
    17:00 +40°C° 0 mm 4 m/S 755 mmHg 29%
    18:00 +37°C° 0 mm 4 m/S 755 mmHg 34%
    19:00 +36°C° 0 mm 3 m/S 755 mmHg 37%
    20:00 +36°C° 0 mm 3 m/S 755 mmHg 40%
    21:00 +35°C° 0 mm 2 m/S 755 mmHg 42%
    22:00 +34°C° 0 mm 2 m/S 755 mmHg 44%
    23:00 +34°C° 0 mm 2 m/S 755 mmHg 45%
    Mehr zeigen